• In Netherlands
  • List of Countries
  • For 7 days
  • Water Temperature
  • Satellite Maps
  • Weather Map
  • Weather Widgets
  • user-avatar
    Login

    Hourly Weather Kabul

    Today, 23 August, Wednesday

    Time Temperature Precipitation Wind Pressure Humidity
    00:00 +24°C° 0 mm 1 mps 609 mmHg 39%
    01:00 +23°C° 0 mm 1 mps 609 mmHg 41%
    02:00 +23°C° 0 mm 1 mps 609 mmHg 43%
    03:00 +22°C° 0 mm 1 mps 609 mmHg 44%
    04:00 +21°C° 0 mm 1 mps 608 mmHg 45%
    05:00 +19°C° 0 mm 0 mps 608 mmHg 46%
    06:00 +20°C° 0 mm 0 mps 609 mmHg 42%
    07:00 +21°C° 0 mm 0 mps 610 mmHg 38%
    08:00 +24°C° 0 mm 1 mps 610 mmHg 35%
    09:00 +25°C° 0 mm 1 mps 611 mmHg 31%
    10:00 +27°C° 0 mm 1 mps 611 mmHg 27%
    11:00 +28°C° 0 mm 1 mps 611 mmHg 23%
    12:00 +29°C° 0 mm 2 mps 611 mmHg 21%
    13:00 +30°C° 0 mm 2 mps 611 mmHg 19%
    14:00 +31°C° 0 mm 2 mps 611 mmHg 16%
    15:00 +31°C° 0 mm 3 mps 611 mmHg 16%
    16:00 +33°C° 0 mm 3 mps 611 mmHg 15%
    17:00 +33°C° 0 mm 3 mps 611 mmHg 15%
    18:00 +30°C° 0 mm 3 mps 611 mmHg 17%
    19:00 +29°C° 0 mm 3 mps 610 mmHg 19%
    20:00 +27°C° 0 mm 2 mps 610 mmHg 21%
    21:00 +26°C° 0 mm 2 mps 610 mmHg 23%
    22:00 +25°C° 0 mm 2 mps 610 mmHg 26%
    23:00 +25°C° 0 mm 2 mps 610 mmHg 28%

    Tomorrow, 24 August, Thursday

    Time Temperature Precipitation Wind Pressure Humidity
    00:00 +24°C° 0 mm 1 mps 609 mmHg 29%
    01:00 +23°C° 0 mm 1 mps 609 mmHg 30%
    02:00 +22°C° 0 mm 1 mps 608 mmHg 32%
    03:00 +22°C° 0 mm 1 mps 608 mmHg 32%
    04:00 +21°C° 0 mm 1 mps 608 mmHg 33%
    05:00 +21°C° 0 mm 1 mps 608 mmHg 34%
    06:00 +22°C° 0 mm 1 mps 609 mmHg 30%
    07:00 +23°C° 0 mm 1 mps 609 mmHg 27%
    08:00 +25°C° 0 mm 1 mps 610 mmHg 24%
    09:00 +26°C° 0 mm 1 mps 610 mmHg 21%
    10:00 +27°C° 0 mm 1 mps 611 mmHg 18%
    11:00 +29°C° 0 mm 1 mps 611 mmHg 15%
    12:00 +30°C° 0 mm 2 mps 611 mmHg 14%
    13:00 +31°C° 0 mm 2 mps 611 mmHg 13%
    14:00 +32°C° 0 mm 2 mps 611 mmHg 11%
    15:00 +33°C° 0 mm 3 mps 611 mmHg 12%
    16:00 +33°C° 0 mm 3 mps 610 mmHg 12%
    17:00 +33°C° 0 mm 4 mps 610 mmHg 12%
    18:00 +30°C° 0 mm 3 mps 610 mmHg 14%
    19:00 +28°C° 0 mm 3 mps 610 mmHg 17%
    20:00 +27°C° 0 mm 3 mps 610 mmHg 19%
    21:00 +26°C° 0 mm 2 mps 610 mmHg 20%
    22:00 +25°C° 0 mm 2 mps 609 mmHg 22%
    23:00 +24°C° 0 mm 2 mps 609 mmHg 23%

    Day after tomorrow, 25 August, Friday

    Time Temperature Precipitation Wind Pressure Humidity
    00:00 +23°C° 0 mm 2 mps 609 mmHg 23%
    01:00 +23°C° 0 mm 2 mps 608 mmHg 24%
    02:00 +21°C° 0 mm 2 mps 608 mmHg 24%
    03:00 +20°C° 0 mm 2 mps 608 mmHg 24%
    04:00 +20°C° 0 mm 2 mps 608 mmHg 24%
    05:00 +20°C° 0 mm 1 mps 607 mmHg 24%
    06:00 +22°C° 0 mm 1 mps 608 mmHg 22%
    07:00 +23°C° 0 mm 1 mps 609 mmHg 20%
    08:00 +24°C° 0 mm 1 mps 610 mmHg 18%
    09:00 +25°C° 0 mm 2 mps 610 mmHg 16%
    10:00 +27°C° 0 mm 2 mps 610 mmHg 14%
    11:00 +28°C° 0 mm 2 mps 611 mmHg 13%
    12:00 +29°C° 0 mm 2 mps 611 mmHg 12%
    13:00 +30°C° 0 mm 2 mps 610 mmHg 11%
    14:00 +31°C° 0 mm 2 mps 610 mmHg 10%
    15:00 +31°C° 0 mm 3 mps 610 mmHg 10%
    16:00 +31°C° 0 mm 3 mps 610 mmHg 9%
    17:00 +32°C° 0 mm 4 mps 610 mmHg 9%
    18:00 +29°C° 0 mm 4 mps 609 mmHg 10%
    19:00 +27°C° 0 mm 4 mps 609 mmHg 12%
    20:00 +26°C° 0 mm 3 mps 609 mmHg 13%
    21:00 +25°C° 0 mm 3 mps 608 mmHg 14%
    22:00 +24°C° 0 mm 3 mps 608 mmHg 15%
    23:00 +23°C° 0 mm 2 mps 608 mmHg 15%

    26 August, Saturday

    Time Temperature Precipitation Wind Pressure Humidity
    00:00 +21°C° 0 mm 2 mps 608 mmHg 16%
    01:00 +21°C° 0 mm 2 mps 607 mmHg 17%
    02:00 +20°C° 0 mm 2 mps 607 mmHg 17%
    03:00 +19°C° 0 mm 2 mps 607 mmHg 18%
    04:00 +19°C° 0 mm 2 mps 607 mmHg 18%
    05:00 +18°C° 0 mm 2 mps 606 mmHg 18%
    06:00 +19°C° 0 mm 2 mps 607 mmHg 17%
    07:00 +21°C° 0 mm 2 mps 608 mmHg 15%
    08:00 +23°C° 0 mm 2 mps 609 mmHg 14%
    09:00 +24°C° 0 mm 2 mps 609 mmHg 12%
    10:00 +26°C° 0 mm 2 mps 610 mmHg 11%
    11:00 +27°C° 0 mm 2 mps 610 mmHg 10%
    12:00 +28°C° 0 mm 2 mps 610 mmHg 9%
    13:00 +29°C° 0 mm 2 mps 610 mmHg 9%
    14:00 +30°C° 0 mm 2 mps 610 mmHg 8%
    15:00 +30°C° 0 mm 3 mps 610 mmHg 8%
    16:00 +30°C° 0 mm 3 mps 609 mmHg 9%
    17:00 +30°C° 0 mm 4 mps 609 mmHg 9%
    18:00 +28°C° 0 mm 3 mps 609 mmHg 11%
    19:00 +27°C° 0 mm 3 mps 609 mmHg 13%
    20:00 +25°C° 0 mm 3 mps 608 mmHg 15%
    21:00 +24°C° 0 mm 3 mps 608 mmHg 16%
    22:00 +23°C° 0 mm 2 mps 608 mmHg 17%
    23:00 +21°C° 0 mm 2 mps 608 mmHg 18%

    27 August, Sunday

    Time Temperature Precipitation Wind Pressure Humidity
    00:00 +21°C° 0 mm 2 mps 608 mmHg 19%
    01:00 +20°C° 0 mm 2 mps 607 mmHg 20%
    02:00 +19°C° 0 mm 2 mps 607 mmHg 21%
    03:00 +19°C° 0 mm 2 mps 607 mmHg 21%
    04:00 +18°C° 0 mm 2 mps 607 mmHg 22%
    05:00 +18°C° 0 mm 2 mps 607 mmHg 22%
    06:00 +19°C° 0 mm 2 mps 608 mmHg 20%
    07:00 +20°C° 0 mm 2 mps 608 mmHg 18%
    08:00 +23°C° 0 mm 2 mps 609 mmHg 16%
    09:00 +24°C° 0 mm 2 mps 609 mmHg 15%
    10:00 +25°C° 0 mm 2 mps 610 mmHg 13%
    11:00 +27°C° 0 mm 2 mps 610 mmHg 11%
    12:00 +28°C° 0 mm 2 mps 610 mmHg 10%
    13:00 +29°C° 0 mm 2 mps 610 mmHg 10%
    14:00 +30°C° 0 mm 2 mps 610 mmHg 9%
    15:00 +30°C° 0 mm 3 mps 610 mmHg 9%
    16:00 +30°C° 0 mm 3 mps 610 mmHg 9%
    17:00 +30°C° 0 mm 3 mps 610 mmHg 9%
    18:00 +28°C° 0 mm 3 mps 610 mmHg 11%
    19:00 +27°C° 0 mm 3 mps 609 mmHg 13%
    20:00 +25°C° 0 mm 3 mps 609 mmHg 15%
    21:00 +24°C° 0 mm 2 mps 609 mmHg 17%
    22:00 +23°C° 0 mm 2 mps 609 mmHg 19%
    23:00 +23°C° 0 mm 2 mps 609 mmHg 20%

    28 August, Monday

    Time Temperature Precipitation Wind Pressure Humidity
    00:00 +21°C° 0 mm 2 mps 609 mmHg 21%
    01:00 +20°C° 0 mm 2 mps 608 mmHg 22%
    02:00 +20°C° 0 mm 2 mps 608 mmHg 23%
    03:00 +19°C° 0 mm 2 mps 608 mmHg 24%
    04:00 +19°C° 0 mm 2 mps 608 mmHg 24%
    05:00 +18°C° 0 mm 2 mps 608 mmHg 24%
    06:00 +21°C° 0 mm 1 mps 609 mmHg 22%
    07:00 +22°C° 0 mm 1 mps 610 mmHg 19%
    08:00 +23°C° 0 mm 1 mps 610 mmHg 17%
    09:00 +25°C° 0 mm 1 mps 611 mmHg 15%
    10:00 +26°C° 0 mm 1 mps 611 mmHg 14%
    11:00 +27°C° 0 mm 2 mps 611 mmHg 12%
    12:00 +28°C° 0 mm 2 mps 611 mmHg 11%
    13:00 +29°C° 0 mm 2 mps 611 mmHg 11%
    14:00 +30°C° 0 mm 2 mps 611 mmHg 10%
    15:00 +30°C° 0 mm 3 mps 611 mmHg 10%
    16:00 +30°C° 0 mm 3 mps 611 mmHg 10%
    17:00 +30°C° 0 mm 3 mps 611 mmHg 10%
    18:00 +29°C° 0 mm 3 mps 610 mmHg 12%
    19:00 +27°C° 0 mm 3 mps 610 mmHg 13%
    20:00 +26°C° 0 mm 3 mps 610 mmHg 15%
    21:00 +25°C° 0 mm 2 mps 610 mmHg 17%
    22:00 +24°C° 0 mm 2 mps 610 mmHg 18%
    23:00 +23°C° 0 mm 2 mps 610 mmHg 20%
    Show more